Tracking 17694 objects as of 27-May-2016
HD Live streaming from Space Station
objects crossing your sky now

INTELSAT 501

Track INTELSAT 501 now!
INTELSAT 501 is classified as:


NORAD ID: 12474
Int'l Code: 1981-050A
Perigee: 36,172.1 km
Apogee: 36,219.4 km
Inclination: 15.2 °
Period: 1,456.7 minutes
Semi major axis: 42566 km
RCS: 3.981 m2 (large)
Launch date: May 23, 1981
Source: International Telecommunications Satellite Organization (ITSO)
Launch site: AIR FORCE EASTERN TEST RANGE (AFETR)
Your satellite tracking list
Your tracking list is empty





NASA's NSSDC Master Catalog

Two Line Element Set (TLE):
1 12474U 81050A   16146.84576907 -.00000239  00000-0  00000+0 0  9990
2 12474  15.2126 356.4180 0005561 173.5638 146.5123  0.98854762101423
Source of the keplerian elements: AFSPC

N2YO: 1053